Regional Weather Roundup
Issued by NWS

Home | Current Version | Previous Version | Text Only | Print | Product List | Glossary Off
Versions: 1 2 3 4 5 6 7 8 9 10 11 12 13 14 15 16 17 18 19 20 21 22 23 24 25 26 27 28 29 30 31 32 33 34 35 36 37 38 39 40 41 42 43 44 45 46 47 48 49 50

000
ASUS43 KLSX 181107
RWRMO

WEATHER SUMMARY FOR MISSOURI
NATIONAL WEATHER SERVICE SPRINGFIELD MO
600 AM CDT SAT APR 18 2015

NOTE: "FAIR" INDICATES FEW OR NO CLOUDS BELOW 12,000 FEET WITH NO
       SIGNIFICANT WEATHER AND/OR OBSTRUCTIONS TO VISIBILITY.
       CURRENT SKY AND/OR WEATHER CONDITIONS ARE NOT AVAILABLE FOR
       CHILLICOTHE AND FARMINGTON.

MOZ001>031-035>038-043-044-053-054-181200-
...NORTHERN AND WESTERN MISSOURI...

CITY           SKY/WX    TMP DP  RH WIND       PRES   REMARKS
KANSAS CTY INT CLOUDY    61  56  83 SE9       29.91F
KANSAS C DTWN  CLOUDY    63  56  78 NE5       29.91S
LEE`S SUMMIT   CLOUDY    60  56  86 E7        29.92F
ST JOSEPH      CLOUDY    61  55  81 CALM      29.91F
CHILLICOTHE      N/A     61  57  87 CALM      29.95S
KIRKSVILLE     MOCLDY    59  55  87 E7        29.97F

$$
MOZ066>068-077>081-088>096-101>105-181200-
...SOUTHWEST MISSOURI...

CITY           SKY/WX    TMP DP  RH WIND       PRES   REMARKS
SPRINGFIELD    CLOUDY    62  57  83 SE9       29.93F
JOPLIN         TSTM      63  60  90 SW3       29.92S

$$
MOZ032>034-039>042-045>050-055>058-069>072-181200-
...CENTRAL MISSOURI...

CITY           SKY/WX    TMP DP  RH WIND       PRES   REMARKS
COLUMBIA       CLOUDY    62  57  83 SE7       29.95F
JEFFERSON CITY CLOUDY    62  57  83 SE6       29.96F
ROLLA          CLOUDY    60  58  92 SE10      29.97F
SEDALIA        CLOUDY    63  57  81 S7        29.95S
WHITEMAN AFB   CLOUDY    62  58  84 S8        29.92F
WARRENSBURG    CLOUDY    61  55  82 S5        29.92S
OSAGE BEACH    CLOUDY    63  57  82 SE3       29.96S

$$
MOZ051-052-059>065-181200-
...EAST CENTRAL MISSOURI...

CITY           SKY/WX    TMP DP  RH WIND       PRES   REMARKS
ST LOUIS INTL  CLOUDY    60  55  83 E3        30.00S HAZE
SPIRIT OF STL  CLOUDY    55  54  96 CALM      29.99R FOG
ST CHARLES     MOCLDY    56  53  90 E6        29.99S FOG

$$
MOZ072>076-082>087-097>100-106>115-181200-
...SOUTH CENTRAL AND SOUTHEAST MISSOURI...

CITY           SKY/WX    TMP DP  RH WIND       PRES   REMARKS
CAPE GIRARDEAU FOG       56  56 100 E3        29.99F VSB 1/2
FARMINGTON     CLOUDY    54  52  94 CALM      30.03F
POPLAR BLUFF   FOG       55  53  93 N3        29.99R VSB 1/2
WEST PLAINS    CLOUDY    63  61  93 SE3       29.99F FOG

$$


USA.gov is the U.S. government's official web portal to all federal, state and local government web resources and services.